Time,TemperatureF,DewpointF,PressureIn,WindDirection,WindDirectionDegrees,WindSpeedMPH,WindSpeedGustMPH,Humidity,HourlyPrecipIn,Conditions,Clouds,dailyrainin,SolarRadiationWatts/m^2,SoftwareType,DateUTC
2014-01-06 00:12:00,40.2,38.0,29.29,NW,322,2.0,-999.0,92,-99.99,,,0.01,0,weatherlink.com 1.10,2014-01-06 05:12:00,
2014-01-06 00:27:00,35.5,33.0,29.30,WNW,284,4.0,-999.0,91,-99.99,,,0.03,0,weatherlink.com 1.10,2014-01-06 05:27:00,
2014-01-06 00:42:00,33.3,32.0,29.32,West,270,2.0,-999.0,94,-99.99,,,0.05,0,weatherlink.com 1.10,2014-01-06 05:42:00,
2014-01-06 00:57:00,32.2,31.0,29.28,NW,323,0.0,-999.0,95,-99.99,,,0.05,0,weatherlink.com 1.10,2014-01-06 05:57:00,
2014-01-06 01:12:00,31.9,31.0,29.30,West,277,2.0,-999.0,95,-99.99,,,0.05,0,weatherlink.com 1.10,2014-01-06 06:12:00,
2014-01-06 01:27:00,31.3,30.0,29.32,NW,311,0.0,-999.0,96,-99.99,,,0.06,0,weatherlink.com 1.10,2014-01-06 06:27:00,
2014-01-06 01:42:00,30.7,30.0,29.37,WNW,301,3.0,-999.0,96,-99.99,,,0.07,0,weatherlink.com 1.10,2014-01-06 06:42:00,
2014-01-06 01:57:00,30.0,29.0,29.38,WNW,297,2.0,-999.0,96,-99.99,,,0.07,0,weatherlink.com 1.10,2014-01-06 06:57:00,
2014-01-06 02:12:00,29.2,28.0,29.41,NW,323,4.0,-999.0,96,-99.99,,,0.08,0,weatherlink.com 1.10,2014-01-06 07:12:00,
2014-01-06 02:27:00,28.1,27.0,29.42,NW,313,0.0,-999.0,96,-99.99,,,0.08,0,weatherlink.com 1.10,2014-01-06 07:27:00,
2014-01-06 02:42:00,26.9,26.0,29.45,WNW,284,2.0,-999.0,96,-99.99,,,0.08,0,weatherlink.com 1.10,2014-01-06 07:42:00,
2014-01-06 02:57:00,26.3,25.0,29.47,NNE,29,4.0,-999.0,95,-99.99,,,0.08,0,weatherlink.com 1.10,2014-01-06 07:57:00,
2014-01-06 03:12:00,25.7,25.0,29.50,SW,234,4.0,-999.0,95,-99.99,,,0.08,0,weatherlink.com 1.10,2014-01-06 08:12:00,
2014-01-06 03:27:00,24.5,23.0,29.52,WNW,292,7.0,-999.0,94,-99.99,,,0.08,0,weatherlink.com 1.10,2014-01-06 08:27:00,
2014-01-06 03:42:00,23.3,22.0,29.55,West,263,4.0,-999.0,93,-99.99,,,0.08,0,weatherlink.com 1.10,2014-01-06 08:42:00,
2014-01-06 03:57:00,22.8,21.0,29.55,West,272,9.0,-999.0,93,-99.99,,,0.09,0,weatherlink.com 1.10,2014-01-06 08:57:00,
2014-01-06 04:12:00,22.3,21.0,29.58,SSE,153,0.0,-999.0,93,-99.99,,,0.09,0,weatherlink.com 1.10,2014-01-06 09:12:00,
2014-01-06 04:27:00,21.5,20.0,29.60,WSW,252,2.0,-999.0,92,-99.99,,,0.09,0,weatherlink.com 1.10,2014-01-06 09:27:00,
2014-01-06 04:42:00,20.9,19.0,29.62,NNW,330,3.0,-999.0,92,-99.99,,,0.09,0,weatherlink.com 1.10,2014-01-06 09:42:00,
2014-01-06 04:57:00,20.6,19.0,29.63,West,261,4.0,-999.0,92,-99.99,,,0.09,0,weatherlink.com 1.10,2014-01-06 09:57:00,
2014-01-06 05:12:00,20.2,18.0,29.64,WNW,290,5.0,-999.0,92,-99.99,,,0.09,0,weatherlink.com 1.10,2014-01-06 10:12:00,
2014-01-06 05:27:00,19.9,18.0,29.65,WNW,283,2.0,-999.0,91,-99.99,,,0.09,0,weatherlink.com 1.10,2014-01-06 10:27:00,
2014-01-06 05:42:00,19.7,18.0,29.67,WNW,286,10.0,-999.0,91,-99.99,,,0.09,0,weatherlink.com 1.10,2014-01-06 10:42:00,
2014-01-06 05:57:00,19.1,17.0,29.68,West,261,3.0,-999.0,90,-99.99,,,0.09,0,weatherlink.com 1.10,2014-01-06 10:57:00,
2014-01-06 06:12:00,18.8,16.0,29.70,West,267,3.0,-999.0,89,-99.99,,,0.09,0,weatherlink.com 1.10,2014-01-06 11:12:00,
2014-01-06 06:27:00,18.7,16.0,29.70,WSW,256,3.0,-999.0,90,-99.99,,,0.09,0,weatherlink.com 1.10,2014-01-06 11:27:00,
2014-01-06 06:42:00,18.6,16.0,29.71,NW,306,5.0,-999.0,90,-99.99,,,0.09,0,weatherlink.com 1.10,2014-01-06 11:42:00,
2014-01-06 06:57:00,18.5,16.0,29.72,West,281,7.0,-999.0,91,-99.99,,,0.09,0,weatherlink.com 1.10,2014-01-06 11:57:00,
2014-01-06 07:12:00,18.2,16.0,29.73,WNW,290,7.0,-999.0,91,-99.99,,,0.09,0,weatherlink.com 1.10,2014-01-06 12:12:00,
2014-01-06 07:27:00,17.9,16.0,29.74,West,279,4.0,-999.0,91,-99.99,,,0.09,0,weatherlink.com 1.10,2014-01-06 12:27:00,
2014-01-06 07:42:00,17.8,16.0,29.74,NW,314,6.0,-999.0,91,-99.99,,,0.09,0,weatherlink.com 1.10,2014-01-06 12:42:00,
2014-01-06 07:57:00,17.6,16.0,29.75,WSW,256,12.0,-999.0,91,-99.99,,,0.09,0,weatherlink.com 1.10,2014-01-06 12:57:00,
2014-01-06 08:12:00,17.6,16.0,29.76,West,269,0.0,-999.0,91,-99.99,,,0.09,0,weatherlink.com 1.10,2014-01-06 13:12:00,
2014-01-06 08:27:00,17.6,15.0,29.76,SW,225,0.0,-999.0,90,-99.99,,,0.09,0,weatherlink.com 1.10,2014-01-06 13:27:00,
2014-01-06 08:42:00,17.5,15.0,29.77,West,275,17.0,-999.0,89,-99.99,,,0.09,5,weatherlink.com 1.10,2014-01-06 13:42:00,
2014-01-06 08:57:00,17.2,15.0,29.78,WSW,245,5.0,-999.0,89,-99.99,,,0.09,7,weatherlink.com 1.10,2014-01-06 13:57:00,
2014-01-06 09:12:00,16.9,14.0,29.79,WNW,282,4.0,-999.0,87,-99.99,,,0.09,9,weatherlink.com 1.10,2014-01-06 14:12:00,
2014-01-06 09:27:00,15.7,13.0,29.79,West,265,1.0,-999.0,88,-99.99,,,0.09,28,weatherlink.com 1.10,2014-01-06 14:27:00,
2014-01-06 09:42:00,14.9,12.0,29.80,West,270,15.0,-999.0,89,-99.99,,,0.09,25,weatherlink.com 1.10,2014-01-06 14:42:00,
2014-01-06 09:57:00,13.4,11.0,29.82,WSW,256,11.0,-999.0,88,-99.99,,,0.09,28,weatherlink.com 1.10,2014-01-06 14:57:00,
2014-01-06 10:12:00,11.7,9.0,29.82,West,280,9.0,-999.0,87,-99.99,,,0.09,47,weatherlink.com 1.10,2014-01-06 15:12:00,
2014-01-06 10:27:00,10.8,7.0,29.82,WNW,293,6.0,-999.0,86,-99.99,,,0.09,54,weatherlink.com 1.10,2014-01-06 15:27:00,
2014-01-06 10:42:00,10.0,7.0,29.84,West,273,2.0,-999.0,86,-99.99,,,0.09,39,weatherlink.com 1.10,2014-01-06 15:42:00,
2014-01-06 10:57:00,8.3,5.0,29.84,West,273,5.0,-999.0,85,-99.99,,,0.09,56,weatherlink.com 1.10,2014-01-06 15:57:00,
2014-01-06 11:12:00,7.8,4.0,29.84,WSW,252,5.0,-999.0,85,-99.99,,,0.09,51,weatherlink.com 1.10,2014-01-06 16:12:00,
2014-01-06 11:27:00,7.1,4.0,29.84,WSW,249,7.0,-999.0,85,-99.99,,,0.09,74,weatherlink.com 1.10,2014-01-06 16:27:00,
2014-01-06 11:42:00,6.7,3.0,29.84,NW,306,3.0,-999.0,83,-99.99,,,0.09,83,weatherlink.com 1.10,2014-01-06 16:42:00,
2014-01-06 11:57:00,5.9,2.0,29.84,WNW,286,6.0,-999.0,83,-99.99,,,0.09,81,weatherlink.com 1.10,2014-01-06 16:57:00,
2014-01-06 12:12:00,5.9,2.0,29.84,WNW,296,3.0,-999.0,83,-99.99,,,0.09,60,weatherlink.com 1.10,2014-01-06 17:12:00,
2014-01-06 12:27:00,5.0,1.0,29.84,NW,306,6.0,-999.0,83,-99.99,,,0.09,79,weatherlink.com 1.10,2014-01-06 17:27:00,
2014-01-06 12:42:00,4.3,0.0,29.85,WSW,238,2.0,-999.0,82,-99.99,,,0.09,69,weatherlink.com 1.10,2014-01-06 17:42:00,
2014-01-06 12:57:00,3.0,-2.0,29.85,West,261,2.0,-999.0,81,-99.99,,,0.09,76,weatherlink.com 1.10,2014-01-06 17:57:00,
2014-01-06 13:12:00,3.1,-2.0,29.85,WNW,288,3.0,-999.0,80,-99.99,,,0.09,90,weatherlink.com 1.10,2014-01-06 18:12:00,
2014-01-06 13:28:00,1.9,-4.0,29.86,WSW,254,7.0,-999.0,78,-99.99,,,0.09,91,weatherlink.com 1.10,2014-01-06 18:28:00,
2014-01-06 13:43:00,1.5,-4.0,29.87,NNW,334,7.0,-999.0,79,-99.99,,,0.09,63,weatherlink.com 1.10,2014-01-06 18:43:00,
2014-01-06 13:58:00,0.4,-5.0,29.88,NW,304,5.0,-999.0,79,-99.99,,,0.09,77,weatherlink.com 1.10,2014-01-06 18:58:00,
2014-01-06 14:13:00,0.3,-5.0,29.88,NNE,23,2.0,-999.0,80,-99.99,,,0.09,121,weatherlink.com 1.10,2014-01-06 19:13:00,
2014-01-06 14:28:00,-0.1,-6.0,29.88,WNW,300,7.0,-999.0,77,-99.99,,,0.09,88,weatherlink.com 1.10,2014-01-06 19:28:00,
2014-01-06 14:43:00,-1.0,-6.0,29.89,West,275,5.0,-999.0,78,-99.99,,,0.09,100,weatherlink.com 1.10,2014-01-06 19:43:00,
2014-01-06 14:58:00,-0.9,-6.0,29.90,WNW,296,3.0,-999.0,79,-99.99,,,0.09,90,weatherlink.com 1.10,2014-01-06 19:58:00,
2014-01-06 15:13:00,-0.9,-6.0,29.91,NW,319,3.0,-999.0,79,-99.99,,,0.09,63,weatherlink.com 1.10,2014-01-06 20:13:00,
2014-01-06 15:28:00,-1.4,-7.0,29.92,West,266,2.0,-999.0,78,-99.99,,,0.09,83,weatherlink.com 1.10,2014-01-06 20:28:00,
2014-01-06 15:43:00,-1.6,-7.0,29.93,SSW,206,3.0,-999.0,79,-99.99,,,0.09,46,weatherlink.com 1.10,2014-01-06 20:43:00,
2014-01-06 15:58:00,-2.0,-7.0,29.94,NW,316,2.0,-999.0,78,-99.99,,,0.09,37,weatherlink.com 1.10,2014-01-06 20:58:00,
2014-01-06 16:13:00,-2.3,-8.0,29.95,NW,309,5.0,-999.0,77,-99.99,,,0.09,37,weatherlink.com 1.10,2014-01-06 21:13:00,
2014-01-06 16:28:00,-2.7,-9.0,29.95,WSW,238,5.0,-999.0,76,-99.99,,,0.09,30,weatherlink.com 1.10,2014-01-06 21:28:00,
2014-01-06 16:43:00,-3.1,-9.0,29.97,WSW,257,2.0,-999.0,74,-99.99,,,0.09,14,weatherlink.com 1.10,2014-01-06 21:43:00,
2014-01-06 16:58:00,-3.7,-10.0,29.98,West,263,3.0,-999.0,75,-99.99,,,0.09,7,weatherlink.com 1.10,2014-01-06 21:58:00,
2014-01-06 17:13:00,-4.0,-10.0,29.98,West,275,14.0,-999.0,75,-99.99,,,0.09,0,weatherlink.com 1.10,2014-01-06 22:13:00,
2014-01-06 17:28:00,-4.6,-11.0,29.99,West,259,7.0,-999.0,75,-99.99,,,0.09,0,weatherlink.com 1.10,2014-01-06 22:28:00,
2014-01-06 17:43:00,-5.0,-11.0,30.01,WSW,250,0.0,-999.0,76,-99.99,,,0.09,0,weatherlink.com 1.10,2014-01-06 22:43:00,
2014-01-06 17:58:00,-5.8,-12.0,30.02,WSW,250,3.0,-999.0,75,-99.99,,,0.09,0,weatherlink.com 1.10,2014-01-06 22:58:00,
2014-01-06 18:13:00,-6.4,-12.0,30.02,NNW,327,0.0,-999.0,75,-99.99,,,0.09,0,weatherlink.com 1.10,2014-01-06 23:13:00,
2014-01-06 18:28:00,-6.7,-12.0,30.04,West,265,6.0,-999.0,76,-99.99,,,0.09,0,weatherlink.com 1.10,2014-01-06 23:28:00,
2014-01-06 18:43:00,-7.0,-13.0,30.04,SW,227,0.0,-999.0,76,-99.99,,,0.09,0,weatherlink.com 1.10,2014-01-06 23:43:00,
2014-01-06 18:58:00,-7.3,-13.0,30.06,SW,232,1.0,-999.0,76,-99.99,,,0.09,0,weatherlink.com 1.10,2014-01-06 23:58:00,
2014-01-06 19:13:00,-7.8,-13.0,30.06,WNW,288,5.0,-999.0,76,-99.99,,,0.09,0,weatherlink.com 1.10,2014-01-07 00:13:00,
2014-01-06 19:28:00,-8.0,-14.0,30.07,WNW,297,2.0,-999.0,76,-99.99,,,0.09,0,weatherlink.com 1.10,2014-01-07 00:28:00,
2014-01-06 19:43:00,-8.2,-14.0,30.09,NW,304,1.0,-999.0,76,-99.99,,,0.09,0,weatherlink.com 1.10,2014-01-07 00:43:00,
2014-01-06 19:57:00,-8.6,-14.0,30.09,SW,236,6.0,-999.0,76,-99.99,,,0.09,0,weatherlink.com 1.10,2014-01-07 00:57:00,
2014-01-06 20:12:00,-9.2,-15.0,30.10,WSW,249,3.0,-999.0,75,-99.99,,,0.09,0,weatherlink.com 1.10,2014-01-07 01:12:00,
2014-01-06 20:27:00,-9.4,-15.0,30.10,SW,229,4.0,-999.0,76,-99.99,,,0.09,0,weatherlink.com 1.10,2014-01-07 01:27:00,
2014-01-06 20:42:00,-9.7,-15.0,30.11,NW,317,8.0,-999.0,76,-99.99,,,0.09,0,weatherlink.com 1.10,2014-01-07 01:42:00,
2014-01-06 20:57:00,-10.2,-16.0,30.12,SW,235,1.0,-999.0,75,-99.99,,,0.09,0,weatherlink.com 1.10,2014-01-07 01:57:00,
2014-01-06 21:12:00,-10.4,-16.0,30.12,West,278,4.0,-999.0,75,-99.99,,,0.09,0,weatherlink.com 1.10,2014-01-07 02:12:00,
2014-01-06 21:27:00,-10.6,-16.0,30.12,NW,305,10.0,-999.0,75,-99.99,,,0.09,0,weatherlink.com 1.10,2014-01-07 02:27:00,
2014-01-06 21:42:00,-10.9,-17.0,30.13,West,261,12.0,-999.0,75,-99.99,,,0.09,0,weatherlink.com 1.10,2014-01-07 02:42:00,
2014-01-06 21:57:00,-11.1,-17.0,30.13,West,267,2.0,-999.0,74,-99.99,,,0.09,0,weatherlink.com 1.10,2014-01-07 02:57:00,
2014-01-06 22:12:00,-11.2,-17.0,30.14,WNW,301,10.0,-999.0,74,-99.99,,,0.09,0,weatherlink.com 1.10,2014-01-07 03:12:00,
2014-01-06 22:27:00,-11.3,-17.0,30.14,West,269,3.0,-999.0,74,-99.99,,,0.09,0,weatherlink.com 1.10,2014-01-07 03:27:00,
2014-01-06 22:42:00,-11.4,-18.0,30.15,SW,236,6.0,-999.0,74,-99.99,,,0.09,0,weatherlink.com 1.10,2014-01-07 03:42:00,
2014-01-06 22:57:00,-11.4,-18.0,30.15,NW,305,7.0,-999.0,74,-99.99,,,0.09,0,weatherlink.com 1.10,2014-01-07 03:57:00,
2014-01-06 23:12:00,-11.4,-17.0,30.15,NW,308,12.0,-999.0,75,-99.99,,,0.09,0,weatherlink.com 1.10,2014-01-07 04:12:00,
2014-01-06 23:27:00,-11.5,-17.0,30.15,West,269,9.0,-999.0,75,-99.99,,,0.09,0,weatherlink.com 1.10,2014-01-07 04:27:00,
2014-01-06 23:42:00,-11.5,-17.0,30.16,SW,236,6.0,-999.0,75,-99.99,,,0.09,0,weatherlink.com 1.10,2014-01-07 04:42:00,
2014-01-06 23:57:00,-11.6,-17.0,30.16,SW,221,2.0,-999.0,75,-99.99,,,0.09,0,weatherlink.com 1.10,2014-01-07 04:57:00,